{"data":{"norad_id":56507,"intl_designator":"2023-065E","name":"STARLINK-5333","alt_names":[],"object_type":"PAYLOAD","status":"ACTIVE","operator":null,"country":"US","launch_date":"2023-05-14","launch_site_code":"AFETR","launch_vehicle":null,"mission":null,"orbit_class":"UNKNOWN","rcs_meters":null,"size_class":null,"mass_kg":null,"dimensions":null,"purposes":["comms"],"wikipedia_slug":null,"has_3d_model":false,"image_url":null,"decayed_at":null,"tle_current":{"epoch":"2026-09-20T01:38:15.779616Z","epoch_age_seconds":152251,"freshness":"FRESH","line1":"1 56507U 23065E   26263.06823819  .00000327  00000+0  21400-4 0  9997","line2":"2 56507  43.0018 161.9799 0001479 265.0367  95.0316 15.27576307186702","mean_motion":15.27576307,"eccentricity":0.0001479,"inclination_deg":43.0018,"raan_deg":161.9799,"arg_perigee_deg":265.0367,"mean_anomaly_deg":95.0316,"bstar":2.14e-5,"rev_number":18670,"period_min":94.266976608717,"perigee_km":482.04538317337,"apogee_km":484.07492529159,"semimajor_km":6861.1971542325,"source":"CELESTRAK","updated_at":"2026-09-21T09:00:33.469712Z"}}}